Regional Weather Roundup
Issued by NWS Little Rock, AR

Home | Current Version | Previous Version | Text Only | Print | Product List | Glossary On
Versions: 1 2 3 4 5 6 7 8 9 10 11 12 13 14 15 16 17 18 19 20 21 22 23 24 25 26 27 28 29 30 31 32 33 34 35 36 37 38 39 40 41 42 43 44 45 46 47 48 49 50
000
ASUS44 KLZK 260805
RWRLZK

WEATHER ROUNDUP FOR ARKANSAS
NATIONAL WEATHER SERVICE LITTLE ROCK AR
300 AM CDT TUE MAY 26 2015

NOTE: "FAIR" INDICATES FEW OR NO CLOUDS BELOW 12,000 FEET WITH NO
SIGNIFICANT WEATHER AND/OR OBSTRUCTIONS TO VISIBILITY.

ARZ001-003-010-029-260900-
NORTHWEST ARKANSAS

CITY           SKY/WX    TMP DP  RH WIND       PRES   REMARKS
FAYETTEVILLE   CLOUDY    60  58  92 SW9       29.87S
FORT SMITH     CLOUDY    63  59  87 W3        29.88R
HARRISON       CLOUDY    60  60 100 S5        29.85F
BENTONVILLE    CLOUDY   N/A N/A N/A SW8       29.86F
ROGERS         CLOUDY    61  58  90 S10       29.87R
SILOAM SPGS    CLOUDY    61  54  77 SW13G21   29.88S
HIGHFILL       CLOUDY    61  58  90 SW7       29.86S
$$

ARZ004-005-016-260900-
NORTH CENTRAL ARKANSAS

CITY           SKY/WX    TMP DP  RH WIND       PRES   REMARKS
BATESVILLE     CLOUDY    64  63  94 E9        29.84F
FLIPPIN        CLOUDY    63  61  94 CALM      29.82F
MTN HOME       CLOUDY    61  60  97 SE3       29.82F
$$

ARZ040-041-260900-
WEST CENTRAL ARKANSAS

CITY           SKY/WX    TMP DP  RH WIND       PRES   REMARKS
MENA           CLOUDY    63  61  94 S5        29.91F
MOUNT IDA      CLOUDY    62  59  90 CALM      29.89F
$$

ARZ009-017-025-026-028-260900-
NORTHEAST ARKANSAS

CITY           SKY/WX    TMP DP  RH WIND       PRES   REMARKS
CORNING        LGT RAIN  68  68 100 S7        29.93S
JONESBORO      LGT RAIN  65  65 100 W5        29.92F
NEWPORT        CLOUDY    65  65 100 SE8       29.89F
WALNUT RIDGE   CLOUDY    66  63  88 SE7       29.91F
BLYTHEVILLE    CLOUDY    73  70  90 S12       29.95F
$$

ARZ022-023-033-042-044-260900-
CENTRAL ARKANSAS

CITY           SKY/WX    TMP DP  RH WIND       PRES   REMARKS
LITTLE ROCK    CLOUDY    64  60  87 SE12G22   29.85F
N LITTLE ROCK    N/A     62  62 100 SE15G25   29.85F
JACKSONVILLE   CLOUDY    63  63  99 SE9       29.85S
SEARCY         CLOUDY    64  63  96 E9        29.86F
HOT SPRINGS    CLOUDY    62  60  93 SW5       29.93S
RUSSELLVILLE   CLOUDY    62  61  96 SW3       29.89R
CLINTON        MOCLDY    63  63 100 W3        29.90R
$$

ARZ036-260900-
EAST ARKANSAS

CITY           SKY/WX    TMP DP  RH WIND       PRES   REMARKS
WEST MEMPHIS   LGT RAIN  67  67 100 CALM      29.94S FOG
$$

ARZ050-053-066-070-073-260900-
SOUTHWEST ARKANSAS

CITY           SKY/WX    TMP DP  RH WIND       PRES   REMARKS
ARKADELPHIA    FAIR      63  63 100 SW6       29.95S
CAMDEN         CLOUDY    63  59  88 NE6       29.94R
TEXARKANA      CLOUDY    63  62  97 S5        29.94S
EL DORADO      LGT RAIN  62  60  93 E14       29.91F
$$

ARZ056-057-069-260900-
SOUTHEAST ARKANSAS

CITY           SKY/WX    TMP DP  RH WIND       PRES   REMARKS
PINE BLUFF     LGT RAIN  63  61  93 SE17      29.93F
STUTTGART      CLOUDY    64  61  88 MISG      29.91F
MONTICELLO     LGT RAIN  63  62  97 SE8       29.99R

$$




USA.gov is the U.S. government's official web portal to all federal, state and local government web resources and services.